Location: Góry Miechowskie
(50.3599°N, 20.1803°E)
Time: 15:45:47
(UTC+00:00)

Cosmos 990 Rocket - Visible Passes

Search period start: 08 September 2024 00:00
Search period end: 18 September 2024 00:00
Orbit: 743 x 766 km, 74.0° (Epoch: 08 September)

Date Brightness Start Highest point End Pass type
(mag) Time Alt. Az. Time Alt. Az. Time Alt. Az.
08 Sep 6.7 18:15:47 10° NW 18:19:17 18° W 18:22:45 10° SW visible
09 Sep 6.1 17:34:05 10° NW 17:38:38 31° W 17:43:08 10° SSW visible
11 Sep 7.0 17:55:11 10° WNW 17:57:55 14° W 18:00:37 10° SW visible
14 Sep 7.5 17:35:03 10° WNW 17:36:30 11° W 17:37:56 10° WSW visible
